This is the latest recevied weather packets stored in our database for station/object W3TMB. If no packets are shown the sender has not sent any weather packets the latest 10 day(s).
| Time | Temp. | Humidity | Pressure | Rain* | Wind** | Luminosity | Snow |
|---|---|---|---|---|---|---|---|
| 1778180261 | 17.78° C | 37% | 1005.9 hPa | 0 mm | - | 782 W/m² | - |
| 1778179958 | 17.22° C | 36% | 1005.9 hPa | 0 mm | - | 803 W/m² | - |
| 1778179655 | 16.67° C | 39% | 1006.1 hPa | 0 mm | - | 253 W/m² | - |
| 1778179353 | 16.67° C | 37% | 1006.1 hPa | 0 mm | - | 219 W/m² | - |
| 1778179049 | 16.67° C | 38% | 1006.4 hPa | 0 mm | - | 226 W/m² | - |
| 1778178747 | 17.78° C | 37% | 1006.1 hPa | 0 mm | - | 287 W/m² | - |
| 1778178444 | 18.33° C | 37% | 1006.2 hPa | 0 mm | - | 212 W/m² | - |
| 1778178139 | 17.78° C | 36% | 1006.4 hPa | 0 mm | - | 862 W/m² | - |
| 1778177836 | 18.33° C | 37% | 1006.3 hPa | 0 mm | - | 833 W/m² | - |
| 1778177533 | 18.33° C | 35% | 1006.5 hPa | 0 mm | - | 760 W/m² | - |
| 1778177229 | 17.22° C | 37% | 1006.4 hPa | 0 mm | - | 868 W/m² | - |
| 1778176926 | 16.67° C | 42% | 1006.7 hPa | 0 mm | - | 860 W/m² | - |
| 1778176621 | 16.11° C | 40% | 1006.6 hPa | 0 mm | - | 607 W/m² | - |
| 1778176319 | 16.11° C | 37% | 1006.8 hPa | 0 mm | - | 283 W/m² | - |
| 1778176016 | 17.22° C | 43% | 1007 hPa | 0 mm | - | 247 W/m² | - |
| 1778175714 | 18.89° C | 41% | 1007.1 hPa | 0 mm | - | 898 W/m² | - |
| 1778175411 | 17.78° C | 38% | 1007.1 hPa | 0 mm | - | 911 W/m² | - |
| 1778175107 | 17.22° C | 41% | 1006.8 hPa | 0 mm | - | 873 W/m² | - |
| 1778174804 | 16.67° C | 41% | 1007.4 hPa | 0 mm | - | 790 W/m² | - |
| 1778174496 | 16.67° C | 39% | 1007.5 hPa | 0 mm | - | 787 W/m² | - |
| 1778174196 | 16.11° C | 39% | 1007.4 hPa | 0 mm | - | 285 W/m² | - |
| 1778173893 | 16.67° C | 39% | 1007.8 hPa | 0 mm | - | 824 W/m² | - |
| 1778173590 | 16.67° C | 41% | 1007.5 hPa | 0 mm | - | 782 W/m² | - |
| 1778173287 | 15.56° C | 40% | 1007.7 hPa | 0 mm | - | 766 W/m² | - |
| 1778172983 | 16.11° C | 39% | 1007.6 hPa | 0 mm | - | 687 W/m² | - |
* Rain latest hour (hover to see other rain measurements)
** Current wind speed in m/s (hover to see current wind gust speed)